Location: Alto Pass Reservoir
(37.5801°N, 89.3084°W)
Time: 11:42:50
(UTC+00:00)

NEOSSAT - Pass Details

Date: 04 October 2022
Orbit: 767 x 784 km, 98.4° (Epoch: 26 November)

Event Time Altitude Azimuth Distance (km) Brightness Sun altitude
Rises 11:14:39 0° 143° (SE) 3,234 ? -8.9°
Reaches altitude 10° 11:17:06 10° 135° (SE) 2,314 ? -8.4°
Maximum altitude 11:21:43 36° 70° (ENE) 1,221 ? -7.5°
Drops below altitude 10° 11:26:23 10° 5° (N) 2,337 ? -6.6°
Sets 11:28:52 0° 357° (N) 3,272 ? -6.1°
